WetterOnline ( https://www.wetteronline.ch )

Wetter aktuell Paderborn

Aktuelles Wetter: Bad Lippspringe (158m)

6-stündlich | Neueste Meldungen
Ortszeit Temperatur Wetter
Do, 18.07. 2:00 12.7° C bedeckt
Mi, 17.07. 20:00 18.5° C leicht bewölkt
Mi, 17.07. 14:00 16.4° C bedeckt
Mi, 17.07. 8:00 13.6° C Sprühregen
Mi, 17.07. 2:00 13.8° C bedeckt
Di, 16.07. 20:00 15.5° C bedeckt
Di, 16.07. 14:00 14.1° C bedeckt
Di, 16.07. 8:00 11.3° C bedeckt
Ortszeit Temperatur Wetter
Do, 18.07. 6:30 10.9° C wolkig
Do, 18.07. 6:20 10.9° C wolkig
Do, 18.07. 6:10 10.3° C wolkig
Do, 18.07. 6:00 9.9° C wolkig
Do, 18.07. 5:50 9.9° C wolkig
Do, 18.07. 5:40 10.4° C wolkig
Do, 18.07. 5:30 10.3° C wolkig
Do, 18.07. 5:00 10.4° C wolkig
Do, 18.07. 4:30 11.1° C wolkig
Do, 18.07. 4:00 10.8° C bewölkt
Do, 18.07. 3:30 10.8° C fast wolkenlos
Ortszeit Relative Feuchte Sichtweite
Do, 18.07. 2:00 94% 16 km
Mi, 17.07. 20:00 62% 30 km
Mi, 17.07. 14:00 73% 30 km
Mi, 17.07. 8:00 89% 6 km
Mi, 17.07. 2:00 91% 26 km
Di, 16.07. 20:00 80% 40 km
Di, 16.07. 14:00 82% 27 km
Di, 16.07. 8:00 92% 15 km
Ortszeit Relative Feuchte Sichtweite
Do, 18.07. 6:30 97% 5.0 km
Do, 18.07. 6:20 97% -
Do, 18.07. 6:10 98% -
Do, 18.07. 6:00 96% 6 km
Do, 18.07. 5:50 96% -
Do, 18.07. 5:40 97% -
Do, 18.07. 5:30 97% 2.8 km
Do, 18.07. 5:00 96% 6 km
Do, 18.07. 4:30 97% 8 km
Do, 18.07. 4:00 97% 10 km
Do, 18.07. 3:30 95% 9 km
Ortszeit Niederschlagsmenge Niederschlagsart
Do, 18.07. 2:00 0.0 l/m2 in 6 Std. -
Mi, 17.07. 20:00 0.1 l/m2 in 12 Std. -
Mi, 17.07. 14:00 0.1 l/m2 in 6 Std. Regen
Mi, 17.07. 8:00 0.1 l/m2 in 12 Std. Sprühregen
Mi, 17.07. 2:00 0.0 l/m2 in 6 Std. -
Di, 16.07. 20:00 0.1 l/m2 in 12 Std. Sprühregen
Di, 16.07. 14:00 0.1 l/m2 in 6 Std. Sprühregen
Di, 16.07. 8:00 0.1 l/m2 in 12 Std. Sprühregen
Ortszeit Niederschlagsmenge Niederschlagsart
Do, 18.07. 6:30 0.0 l/m2 in 1 Std. -
Do, 18.07. 6:20 keine Meldung -
Do, 18.07. 6:10 keine Meldung -
Do, 18.07. 6:00 0.0 l/m2 in 1 Std. -
Do, 18.07. 5:50 keine Meldung -
Do, 18.07. 5:40 keine Meldung -
Do, 18.07. 5:30 0.0 l/m2 in 1 Std. -
Do, 18.07. 5:00 0.0 l/m2 in 1 Std. -
Do, 18.07. 4:30 0.0 l/m2 in 1 Std. -
Do, 18.07. 4:00 0.0 l/m2 in 1 Std. -
Do, 18.07. 3:30 0.0 l/m2 in 1 Std. -
Ortszeit Stärke Spitze Richtung
km/h Bft. km/h Grad Sektor
Do, 18.07. 2:00 4 1 7 50° NO
Mi, 17.07. 20:00 4 1 14 170° S
Mi, 17.07. 14:00 6 1 13 190° S
Mi, 17.07. 8:00 6 1 9 310° NW
Mi, 17.07. 2:00 4 1 14 130° SO
Di, 16.07. 20:00 7 2 25 280° W
Di, 16.07. 14:00 18 3 25 270° W
Di, 16.07. 8:00 6 1 11 240° SW
Ortszeit Stärke Spitze Richtung
km/h Bft. km/h Grad Sektor
Do, 18.07. 6:30 0 0 4 - -
Do, 18.07. 6:20 0 0 - - -
Do, 18.07. 6:10 4 1 - 50° NO
Do, 18.07. 6:00 4 1 4 90° O
Do, 18.07. 5:50 4 1 - 90° O
Do, 18.07. 5:40 2 1 - 190° S
Do, 18.07. 5:30 0 0 4 - -
Do, 18.07. 5:00 6 1 6 80° O
Do, 18.07. 4:30 4 1 7 50° NO
Do, 18.07. 4:00 4 1 7 90° O
Do, 18.07. 3:30 4 1 7 60° NO
Ortszeit Untergrenze Bedeckung Gattung
total tief tief mittel hoch
Do, 18.07. 2:00 1410 m 8/8 8/8 - - -
Mi, 17.07. 20:00 2100 m 2/8 2/8 - - -
Mi, 17.07. 14:00 690 m 8/8 8/8 - - -
Mi, 17.07. 8:00 510 m 8/8 8/8 - - -
Mi, 17.07. 2:00 690 m 8/8 8/8 - - -
Di, 16.07. 20:00 660 m 8/8 8/8 - - -
Di, 16.07. 14:00 360 m 8/8 8/8 - - -
Di, 16.07. 8:00 390 m 8/8 8/8 - - -
Ortszeit Bedeckungsgrad in Achtel und Wolkenuntergrenze
Do, 18.07. 6:30 6(8400m) 8(9000m) 8(10500m)
Do, 18.07. 6:20 6(8400m) 8(9000m) 8(10500m)
Do, 18.07. 6:10 5(8700m) 8(9000m) 8(10500m)
Do, 18.07. 6:00 8(9000m) 8(10500m)
Do, 18.07. 5:50 8(9000m) 8(10500m)
Do, 18.07. 5:40 7(9000m) 8(9000m) 8(10500m)
Do, 18.07. 5:30 4(9000m) 8(10500m)
Do, 18.07. 5:00 2(2100m) 7(10500m)
Do, 18.07. 4:30 4(1500m) 5(2100m) 6(10500m)
Do, 18.07. 4:00 6(1500m) 7(2100m)
Do, 18.07. 3:30 1(2100m) 2(2100m)
Ortszeit Luftdruck NN (hPa) Tendenz (hPa in 3 Std.)
Do, 18.07. 2:00 1014 - 0,2
Mi, 17.07. 20:00 1014 - 1,1
Mi, 17.07. 14:00 1016 - 0,1
Mi, 17.07. 8:00 1016 - 0,2
Mi, 17.07. 2:00 1017 - 0,5
Di, 16.07. 20:00 1018 - 0,3
Di, 16.07. 14:00 1019 0,0
Di, 16.07. 8:00 1019 + 0,1
Ortszeit Luftdruck NN (hPa) Tendenz (hPa in 3 Std.)
Do, 18.07. 6:30 1013 - 0,6
Do, 18.07. 6:20 1013 keine Meldung
Do, 18.07. 6:10 1013 keine Meldung
Do, 18.07. 6:00 1013 - 0,8
Do, 18.07. 5:50 1013 keine Meldung
Do, 18.07. 5:40 1013 keine Meldung
Do, 18.07. 5:30 1013 - 0,9
Do, 18.07. 5:00 1013 - 0,9
Do, 18.07. 4:30 1013 - 0,8
Do, 18.07. 4:00 1014 - 0,5
Do, 18.07. 3:30 1014 - 0,5
Ortszeit Schneehöhe (cm)
Do, 18.07. 2:00 -
Mi, 17.07. 20:00 -
Mi, 17.07. 14:00 -
Mi, 17.07. 8:00 -
Mi, 17.07. 2:00 -
Di, 16.07. 20:00 -
Di, 16.07. 14:00 -
Di, 16.07. 8:00 -
Ortszeit Schneehöhe (cm)
Do, 18.07. 6:30 -
Do, 18.07. 6:20 -
Do, 18.07. 6:10 -
Do, 18.07. 6:00 -
Do, 18.07. 5:50 -
Do, 18.07. 5:40 -
Do, 18.07. 5:30 -
Do, 18.07. 5:00 -
Do, 18.07. 4:30 -
Do, 18.07. 4:00 -
Do, 18.07. 3:30 -
Link zu dieser Seite / Seite empfehlen

Das Wetter in ...